2022-153A (54243 NORAD) Tracking and Keplerian Element Data

This shows tracking and keplerian element data for the satellite.

Feedback or suggestion? Click here.




ElementValue
Catalog54243
Name2022-153A
Epoch Orbit5
Epoch Day321.75666288
Epoch Year2022
RAAN126.4407
Inclination1.331
Eccentricity0.2070818
Argument of Perigee181.2691
Mean Anonmoly25.4972
Mean Motion0.71236792
Decay Rate-1.31E-06
L11 54243U 22153A 22321.75666288 -.00000131 00000+0 00000+0 0 9993
L22 54243 1.3310 126.4407 2070818 181.2691 25.4972 0.71236792 57



Live tracking and technical data element details for 2022-153A (NORAD 54243). 2022-153A can be tracked NOW for your location showing map with azimuth and elevation plus other details from your city location.







IsCatalogInMostPopularTable: catalog: 54243, numindb: 3
Update: records affected: 1



GetName: 54243 2022-153A

Hit Count: updated at: Sun, 04 Dec 2022 22:38:28 GMT